Home > Weather > U.S.A. > Jackson > Past weeks

Flag for U.S.A. Weather past 2 weeks in Jackson, Wyoming, U.S.A.

0 °F

Broken clouds.

Feels Like: -10 °F
Forecast: 0 / 24 °F
Wind: 5 mph from North

Location: Jackson Hole

Current Time: Dec 1, 2015 at 10:09:56 AM

Latest Report: Dec 1, 2015 at 8:51 AM

Visibility: 10 mi

Pressure: 30.24 "Hg (23.44 "Hg at 1901m altitude)

Humidity: 92%

Dew point: -2 °F

Location of JacksonLocation

Historic Weather in Jackson — Graph


Jackson temperature yesterday

Maximum temperature yesterday: 19 °F (at 1:51 PM)
Minimum temperature yesterday: 5 °F (at 5:53 PM)
Average temperature yesterday: 12 °F

Past Weeks' High & Low Weather Summary

High36 °F (Nov 16, 10:51 AM)100% (Nov 17, 7:51 AM)30.47 "Hg (Nov 17, 7:51 AM)
Low-13 °F (Nov 21, 6:15 AM)34% (Nov 18, 10:51 AM)29.63 "Hg (Nov 18, 3:55 AM)
Average17 °F81%30.03 "Hg
* Reported Nov 16 8:51 AM — Dec 1 8:51 AM, Jackson, Weather by CustomWeather, © 2015

Note: Actual official high and low records may vary slightly from our data, if they occured in-between our weather recording intervals... More about our weather records


Jackson weather history for previous 24 hours

Time TempWeatherWind HumidityBarometerVisibility
8:51 AM
Tue, Dec 1
0 °FBroken clouds.5 mph92%30.24 "Hg10 mi
7:51 AM0 °FIce fog.6 mph92%30.23 "Hg5 mi
6:51 AM0 °FOvercast.No wind92%30.20 "Hg8 mi
6:35 AM0 °FOvercast.5 mph92%30.20 "Hg3 mi
6:15 AM0 °FOvercast.5 mph92%30.19 "Hg8 mi
5:55 AM0 °FOvercast.6 mph92%30.18 "Hg9 mi
5:35 AM-2 °FOvercast.6 mph84%30.18 "Hg8 mi
5:15 AM-2 °FOvercast.7 mph92%30.18 "Hg9 mi
4:55 AM-2 °FPassing clouds.6 mph92%30.17 "Hg10 mi
4:35 AM-4 °FClear.5 mph92%30.16 "Hg10 mi
4:15 AM-2 °FPassing clouds.5 mph92%30.16 "Hg10 mi
3:55 AM0 °FPassing clouds.7 mph92%30.15 "Hg10 mi
3:35 AM-2 °FClear.6 mph92%30.16 "Hg10 mi
3:15 AM0 °FPassing clouds.7 mph92%30.16 "Hg10 mi
2:55 AM1 °FOvercast.5 mph92%30.16 "Hg9 mi
2:35 AM1 °FOvercast.7 mph92%30.15 "Hg9 mi
2:15 AM1 °FOvercast.5 mph92%30.14 "Hg4 mi
1:55 AM3 °FMostly cloudy.3 mph92%30.14 "Hg5 mi
12:55 AM7 °FOvercast.3 mph92%30.13 "Hg8 mi
12:35 AM7 °FOvercast.3 mph92%30.13 "Hg8 mi
11:55 PM
Mon, Nov 30
7 °FOvercast.5 mph92%30.13 "Hg10 mi
11:15 PM9 °FOvercast.5 mph92%30.12 "Hg8 mi
10:35 PM7 °FOvercast.3 mph85%30.11 "Hg9 mi
9:55 PM7 °FMostly cloudy.No wind85%30.10 "Hg6 mi
7:58 PM9 °FOvercast.No wind92%30.08 "Hg10 mi
6:54 PM9 °FPassing clouds.No wind92%30.07 "Hg10 mi
5:53 PM5 °FClear.8 mph92%30.05 "Hg10 mi
4:58 PM10 °FPassing clouds.8 mph85%30.04 "Hg10 mi
3:51 PM18 °FLight mixture of precip. Passing clouds.No wind73%30.03 "Hg10 mi
2:51 PM19 °FLight mixture of precip. Passing clouds.No wind73%30.01 "Hg10 mi
1:51 PM19 °FScattered clouds.No wind73%30.02 "Hg10 mi
12:43 PM18 °FLight mixture of precip. Scattered clouds.No wind79%30.03 "Hg8 mi
11:51 AM18 °FIce fog.No wind79%30.04 "Hg6 mi
10:51 AM16 °FIce fog.No wind86%30.06 "Hg4 mi
Weather by CustomWeather, © 2015

See weather overviewHow to use our weather pages